Time,TemperatureF,DewpointF,PressureIn,WindDirection,WindDirectionDegrees,WindSpeedMPH,WindSpeedGustMPH,Humidity,HourlyPrecipIn,Conditions,Clouds,dailyrainin,SoftwareType,DateUTC
2013-11-16 00:12:00,42.8,42.3,29.98,WSW,247,0.0,-999.0,98,-99.99,,,0.00,Acu-Link.com,2013-11-16 05:12:00,
2013-11-16 00:27:00,43.0,42.5,29.97,East,90,0.0,-999.0,98,-99.99,,,0.00,Acu-Link.com,2013-11-16 05:27:00,
2013-11-16 00:43:00,43.2,42.7,29.97,NE,45,0.0,-999.0,98,-99.99,,,0.00,Acu-Link.com,2013-11-16 05:43:00,
2013-11-16 00:58:00,43.2,42.7,29.96,ENE,67,0.0,-999.0,98,-99.99,,,0.00,Acu-Link.com,2013-11-16 05:58:00,
2013-11-16 01:13:00,42.8,42.3,29.96,NNW,337,0.0,-999.0,98,-99.99,,,0.00,Acu-Link.com,2013-11-16 06:13:00,
2013-11-16 01:28:00,42.6,42.1,29.96,ESE,112,0.0,-999.0,98,-99.99,,,0.00,Acu-Link.com,2013-11-16 06:28:00,
2013-11-16 01:44:00,42.6,42.1,29.96,NW,315,0.0,-999.0,98,-99.99,,,0.00,Acu-Link.com,2013-11-16 06:44:00,
2013-11-16 01:59:00,42.8,42.3,29.95,ESE,112,0.0,-999.0,98,-99.99,,,0.00,Acu-Link.com,2013-11-16 06:59:00,
2013-11-16 02:14:00,43.0,42.5,29.94,ESE,112,0.0,-999.0,98,-99.99,,,0.00,Acu-Link.com,2013-11-16 07:14:00,
2013-11-16 02:30:00,43.3,42.8,29.94,East,90,0.0,-999.0,98,-99.99,,,0.00,Acu-Link.com,2013-11-16 07:30:00,
2013-11-16 02:45:00,43.5,43.0,29.95,NE,45,1.7,-999.0,98,-99.99,,,0.00,Acu-Link.com,2013-11-16 07:45:00,
2013-11-16 03:00:00,43.5,43.0,29.95,ENE,67,1.1,-999.0,98,-99.99,,,0.00,Acu-Link.com,2013-11-16 08:00:00,
2013-11-16 03:15:00,43.7,43.2,29.94,SSW,202,0.0,-999.0,98,-99.99,,,0.00,Acu-Link.com,2013-11-16 08:15:00,
2013-11-16 03:31:00,43.7,43.2,29.94,ENE,67,0.0,-999.0,98,-99.99,,,0.00,Acu-Link.com,2013-11-16 08:31:00,
2013-11-16 03:46:00,43.9,43.4,29.94,ENE,67,0.0,-999.0,98,-99.99,,,0.00,Acu-Link.com,2013-11-16 08:46:00,
2013-11-16 04:01:00,43.9,43.4,29.94,SSW,202,0.0,-999.0,98,-99.99,,,0.00,Acu-Link.com,2013-11-16 09:01:00,
2013-11-16 04:16:00,44.1,43.6,29.95,SE,135,1.7,-999.0,98,-99.99,,,0.00,Acu-Link.com,2013-11-16 09:16:00,
2013-11-16 04:31:00,44.2,43.7,29.93,ESE,112,2.2,-999.0,98,-99.99,,,0.00,Acu-Link.com,2013-11-16 09:31:00,
2013-11-16 04:47:00,44.2,43.7,29.93,NE,45,0.0,-999.0,98,-99.99,,,0.00,Acu-Link.com,2013-11-16 09:47:00,
2013-11-16 05:02:00,44.2,43.7,29.94,ESE,112,1.1,-999.0,98,-99.99,,,0.00,Acu-Link.com,2013-11-16 10:02:00,
2013-11-16 05:18:00,44.2,43.7,29.94,NNE,22,1.1,-999.0,98,-99.99,,,0.00,Acu-Link.com,2013-11-16 10:18:00,
2013-11-16 05:33:00,44.2,43.7,29.95,NNE,22,1.1,-999.0,98,-99.99,,,0.00,Acu-Link.com,2013-11-16 10:33:00,
2013-11-16 05:48:00,44.4,43.9,29.94,East,90,0.0,-999.0,98,-99.99,,,0.00,Acu-Link.com,2013-11-16 10:48:00,
2013-11-16 06:03:00,44.4,43.9,29.94,East,90,0.0,-999.0,98,-99.99,,,0.00,Acu-Link.com,2013-11-16 11:03:00,
2013-11-16 06:19:00,44.6,44.1,29.95,South,180,0.0,-999.0,98,-99.99,,,0.00,Acu-Link.com,2013-11-16 11:19:00,
2013-11-16 06:34:00,44.8,44.3,29.96,ENE,67,0.0,-999.0,98,-99.99,,,0.00,Acu-Link.com,2013-11-16 11:34:00,
2013-11-16 06:49:00,45.0,44.5,29.96,ESE,112,0.0,-999.0,98,-99.99,,,0.00,Acu-Link.com,2013-11-16 11:49:00,
2013-11-16 07:04:00,45.1,44.6,29.95,SE,135,0.0,-999.0,98,-99.99,,,0.00,Acu-Link.com,2013-11-16 12:04:00,
2013-11-16 07:20:00,45.3,44.8,29.97,ENE,67,0.0,-999.0,98,-99.99,,,0.00,Acu-Link.com,2013-11-16 12:20:00,
2013-11-16 07:35:00,45.5,45.0,29.96,NW,315,0.0,-999.0,98,-99.99,,,0.00,Acu-Link.com,2013-11-16 12:35:00,
2013-11-16 07:50:00,45.9,45.4,29.97,SW,225,0.0,-999.0,98,-99.99,,,0.00,Acu-Link.com,2013-11-16 12:50:00,
2013-11-16 08:05:00,46.0,45.5,29.98,SW,225,0.0,-999.0,98,-99.99,,,0.00,Acu-Link.com,2013-11-16 13:05:00,
2013-11-16 08:21:00,46.4,45.9,29.98,ESE,112,0.0,-999.0,98,-99.99,,,0.00,Acu-Link.com,2013-11-16 13:21:00,
2013-11-16 08:36:00,46.9,46.4,29.98,ESE,112,0.0,-999.0,98,-99.99,,,0.00,Acu-Link.com,2013-11-16 13:36:00,
2013-11-16 08:51:00,47.7,47.2,29.97,South,180,1.7,-999.0,98,-99.99,,,0.00,Acu-Link.com,2013-11-16 13:51:00,
2013-11-16 09:07:00,48.2,47.7,29.99,SSW,202,0.0,-999.0,98,-99.99,,,0.00,Acu-Link.com,2013-11-16 14:07:00,
2013-11-16 09:22:00,49.3,48.8,29.98,ESE,112,1.1,-999.0,98,-99.99,,,0.00,Acu-Link.com,2013-11-16 14:22:00,
2013-11-16 09:37:00,49.8,49.3,29.99,NNW,337,2.7,-999.0,98,-99.99,,,0.00,Acu-Link.com,2013-11-16 14:37:00,
2013-11-16 09:52:00,50.5,50.0,29.99,NNE,22,2.7,-999.0,98,-99.99,,,0.00,Acu-Link.com,2013-11-16 14:52:00,
2013-11-16 10:07:00,51.1,50.6,30.00,WNW,292,2.7,-999.0,98,-99.99,,,0.00,Acu-Link.com,2013-11-16 15:07:00,
2013-11-16 10:23:00,51.1,50.6,30.00,North,0,2.2,-999.0,98,-99.99,,,0.00,Acu-Link.com,2013-11-16 15:23:00,
2013-11-16 10:38:00,52.2,51.7,30.00,NNE,22,2.2,-999.0,98,-99.99,,,0.00,Acu-Link.com,2013-11-16 15:38:00,
2013-11-16 10:53:00,54.7,54.1,29.99,ESE,112,2.2,-999.0,98,-99.99,,,0.00,Acu-Link.com,2013-11-16 15:53:00,
2013-11-16 11:09:00,57.4,56.8,29.99,South,180,2.2,-999.0,98,-99.99,,,0.00,Acu-Link.com,2013-11-16 16:09:00,
2013-11-16 11:24:00,57.6,57.0,29.99,SSW,202,1.7,-999.0,98,-99.99,,,0.00,Acu-Link.com,2013-11-16 16:24:00,
2013-11-16 11:39:00,58.8,58.2,29.99,NNE,22,0.0,-999.0,98,-99.99,,,0.00,Acu-Link.com,2013-11-16 16:39:00,
2013-11-16 11:55:00,59.0,58.4,29.98,ENE,67,2.7,-999.0,98,-99.99,,,0.00,Acu-Link.com,2013-11-16 16:55:00,
2013-11-16 12:10:00,62.4,61.8,29.96,NNE,22,3.7,-999.0,98,-99.99,,,0.00,Acu-Link.com,2013-11-16 17:10:00,
2013-11-16 12:25:00,62.4,61.8,29.95,NE,45,1.7,-999.0,98,-99.99,,,0.00,Acu-Link.com,2013-11-16 17:25:00,
2013-11-16 12:41:00,65.5,64.9,29.94,NNW,337,2.7,-999.0,98,-99.99,,,0.00,Acu-Link.com,2013-11-16 17:41:00,
2013-11-16 12:56:00,68.2,67.6,29.92,NNE,22,1.7,-999.0,98,-99.99,,,0.00,Acu-Link.com,2013-11-16 17:56:00,
2013-11-16 13:11:00,68.0,67.4,29.91,NNE,22,1.7,-999.0,98,-99.99,,,0.00,Acu-Link.com,2013-11-16 18:11:00,
2013-11-16 13:27:00,66.7,66.1,29.91,South,180,2.7,-999.0,98,-99.99,,,0.00,Acu-Link.com,2013-11-16 18:27:00,
2013-11-16 13:42:00,72.1,65.6,29.91,WNW,292,3.7,-999.0,80,-99.99,,,0.00,Acu-Link.com,2013-11-16 18:42:00,
2013-11-16 13:57:00,72.1,65.2,29.90,WNW,292,2.7,-999.0,79,-99.99,,,0.00,Acu-Link.com,2013-11-16 18:57:00,
2013-11-16 14:12:00,72.1,64.5,29.90,NNE,22,1.7,-999.0,77,-99.99,,,0.00,Acu-Link.com,2013-11-16 19:12:00,
2013-11-16 14:28:00,70.9,64.8,29.89,West,270,1.7,-999.0,81,-99.99,,,0.00,Acu-Link.com,2013-11-16 19:28:00,
2013-11-16 14:43:00,69.6,67.5,29.89,NNW,337,1.7,-999.0,93,-99.99,,,0.00,Acu-Link.com,2013-11-16 19:43:00,
2013-11-16 14:58:00,70.7,64.9,29.88,WNW,292,1.7,-999.0,82,-99.99,,,0.00,Acu-Link.com,2013-11-16 19:58:00,
2013-11-16 15:13:00,69.6,65.2,29.89,SSW,202,0.0,-999.0,86,-99.99,,,0.00,Acu-Link.com,2013-11-16 20:13:00,
2013-11-16 15:29:00,70.7,66.0,29.87,West,270,1.1,-999.0,85,-99.99,,,0.00,Acu-Link.com,2013-11-16 20:29:00,
2013-11-16 15:44:00,70.7,64.9,29.86,SW,225,1.7,-999.0,82,-99.99,,,0.00,Acu-Link.com,2013-11-16 20:44:00,
2013-11-16 15:59:00,71.6,63.6,29.86,NNW,337,2.2,-999.0,76,-99.99,,,0.00,Acu-Link.com,2013-11-16 20:59:00,
2013-11-16 16:15:00,70.3,65.2,29.86,NNE,22,2.2,-999.0,84,-99.99,,,0.00,Acu-Link.com,2013-11-16 21:15:00,
2013-11-16 16:30:00,68.4,66.9,29.86,WNW,292,2.2,-999.0,95,-99.99,,,0.00,Acu-Link.com,2013-11-16 21:30:00,
2013-11-16 16:45:00,66.2,65.6,29.86,WNW,292,1.1,-999.0,98,-99.99,,,0.00,Acu-Link.com,2013-11-16 21:45:00,
2013-11-16 17:01:00,64.2,63.6,29.88,NNE,22,0.0,-999.0,98,-99.99,,,0.00,Acu-Link.com,2013-11-16 22:01:00,
2013-11-16 17:16:00,62.2,61.6,29.87,SSE,157,1.7,-999.0,98,-99.99,,,0.00,Acu-Link.com,2013-11-16 22:16:00,
2013-11-16 17:31:00,60.8,60.2,29.86,SE,135,0.0,-999.0,98,-99.99,,,0.00,Acu-Link.com,2013-11-16 22:31:00,
2013-11-16 17:46:00,59.5,58.9,29.86,SSW,202,0.0,-999.0,98,-99.99,,,0.00,Acu-Link.com,2013-11-16 22:46:00,
2013-11-16 18:02:00,57.7,57.1,29.87,South,180,0.0,-999.0,98,-99.99,,,0.00,Acu-Link.com,2013-11-16 23:02:00,
2013-11-16 18:17:00,56.5,55.9,29.87,WSW,247,0.0,-999.0,98,-99.99,,,0.00,Acu-Link.com,2013-11-16 23:17:00,
2013-11-16 18:32:00,54.9,54.3,29.86,South,180,0.0,-999.0,98,-99.99,,,0.00,Acu-Link.com,2013-11-16 23:32:00,
2013-11-16 18:47:00,53.8,53.2,29.88,South,180,1.1,-999.0,98,-99.99,,,0.00,Acu-Link.com,2013-11-16 23:47:00,
2013-11-16 19:03:00,53.2,52.6,29.88,South,180,0.0,-999.0,98,-99.99,,,0.00,Acu-Link.com,2013-11-17 00:03:00,
2013-11-16 19:18:00,52.5,52.0,29.88,SSE,157,1.1,-999.0,98,-99.99,,,0.00,Acu-Link.com,2013-11-17 00:18:00,
2013-11-16 19:33:00,52.2,51.7,29.89,SSE,157,0.0,-999.0,98,-99.99,,,0.00,Acu-Link.com,2013-11-17 00:33:00,
2013-11-16 19:49:00,52.0,51.5,29.88,SSW,202,0.0,-999.0,98,-99.99,,,0.00,Acu-Link.com,2013-11-17 00:49:00,
2013-11-16 20:04:00,51.6,51.1,29.88,SE,135,0.0,-999.0,98,-99.99,,,0.00,Acu-Link.com,2013-11-17 01:04:00,
2013-11-16 20:20:00,51.4,50.9,29.88,WSW,247,0.0,-999.0,98,-99.99,,,0.00,Acu-Link.com,2013-11-17 01:20:00,
2013-11-16 20:35:00,51.1,50.6,29.87,NNW,337,0.0,-999.0,98,-99.99,,,0.00,Acu-Link.com,2013-11-17 01:35:00,
2013-11-16 20:50:00,50.7,50.2,29.88,South,180,0.0,-999.0,98,-99.99,,,0.00,Acu-Link.com,2013-11-17 01:50:00,
2013-11-16 21:05:00,50.4,49.9,29.87,NNW,337,0.0,-999.0,98,-99.99,,,0.00,Acu-Link.com,2013-11-17 02:05:00,
2013-11-16 21:21:00,49.8,49.3,29.87,North,0,0.0,-999.0,98,-99.99,,,0.00,Acu-Link.com,2013-11-17 02:21:00,
2013-11-16 21:36:00,50.2,49.7,29.87,NE,45,1.1,-999.0,98,-99.99,,,0.00,Acu-Link.com,2013-11-17 02:36:00,
2013-11-16 21:51:00,50.5,50.0,29.87,NE,45,0.0,-999.0,98,-99.99,,,0.00,Acu-Link.com,2013-11-17 02:51:00,
2013-11-16 22:06:00,50.7,50.2,29.88,NNW,337,0.0,-999.0,98,-99.99,,,0.00,Acu-Link.com,2013-11-17 03:06:00,
2013-11-16 22:21:00,50.4,49.9,29.87,NE,45,1.7,-999.0,98,-99.99,,,0.00,Acu-Link.com,2013-11-17 03:21:00,
2013-11-16 22:36:00,50.4,49.9,29.87,NNE,22,0.0,-999.0,98,-99.99,,,0.00,Acu-Link.com,2013-11-17 03:36:00,
2013-11-16 22:52:00,50.4,49.9,29.87,NE,45,0.0,-999.0,98,-99.99,,,0.00,Acu-Link.com,2013-11-17 03:52:00,
2013-11-16 23:07:00,50.4,49.9,29.87,NE,45,0.0,-999.0,98,-99.99,,,0.00,Acu-Link.com,2013-11-17 04:07:00,
2013-11-16 23:22:00,50.0,49.5,29.88,NNE,22,0.0,-999.0,98,-99.99,,,0.00,Acu-Link.com,2013-11-17 04:22:00,
2013-11-16 23:37:00,49.1,48.6,29.87,North,0,0.0,-999.0,98,-99.99,,,0.00,Acu-Link.com,2013-11-17 04:37:00,
2013-11-16 23:52:00,49.1,48.6,29.88,ESE,112,0.0,-999.0,98,-99.99,,,0.00,Acu-Link.com,2013-11-17 04:52:00,